TimeEST,TemperatureF,Dew PointF,Humidity,Sea Level PressureIn,VisibilityMPH,Wind Direction,Wind SpeedMPH,Gust SpeedMPH,PrecipitationIn,Events,Conditions,WindDirDegrees,DateUTC
12:53 AM,66.9,66.0,97,30.06,10.0,SSE,4.6,-,N/A,,Mostly Cloudy,150,2013-02-22 05:53:00
1:53 AM,66.0,66.0,100,30.06,10.0,Calm,Calm,-,N/A,,Mostly Cloudy,0,2013-02-22 06:53:00
2:53 AM,64.0,64.0,100,30.05,10.0,Calm,Calm,-,N/A,,Mostly Cloudy,0,2013-02-22 07:53:00
3:41 AM,64.4,64.4,100,30.05,6.0,Calm,Calm,-,N/A,Fog,Patches of Fog,0,2013-02-22 08:41:00
3:53 AM,64.0,64.0,100,30.05,5.0,Calm,Calm,-,N/A,Fog,Patches of Fog,0,2013-02-22 08:53:00
4:49 AM,62.6,62.6,100,30.06,2.0,Calm,Calm,-,N/A,Fog,Patches of Fog,0,2013-02-22 09:49:00
4:53 AM,62.1,62.1,100,30.06,0.5,Calm,Calm,-,N/A,Fog,Fog,0,2013-02-22 09:53:00
5:10 AM,62.6,62.6,100,30.07,2.0,Calm,Calm,-,N/A,Fog,Patches of Fog,0,2013-02-22 10:10:00
5:26 AM,62.6,62.6,100,30.07,1.0,Calm,Calm,-,N/A,Fog,Patches of Fog,0,2013-02-22 10:26:00
5:45 AM,60.8,60.8,100,30.08,0.5,Calm,Calm,-,N/A,Fog,Fog,0,2013-02-22 10:45:00
5:53 AM,61.0,61.0,100,30.07,0.5,Calm,Calm,-,N/A,Fog,Fog,0,2013-02-22 10:53:00
6:02 AM,60.8,60.8,100,30.08,0.5,Calm,Calm,-,N/A,Fog,Patches of Fog,0,2013-02-22 11:02:00
6:15 AM,60.8,60.8,100,30.08,1.5,Calm,Calm,-,N/A,Fog,Patches of Fog,0,2013-02-22 11:15:00
6:37 AM,60.8,60.8,100,30.08,2.0,Calm,Calm,-,N/A,Fog,Patches of Fog,0,2013-02-22 11:37:00
6:49 AM,59.0,59.0,100,30.08,1.0,SE,3.5,-,N/A,Fog,Patches of Fog,140,2013-02-22 11:49:00
6:53 AM,59.0,59.0,100,30.08,1.0,Calm,Calm,-,N/A,Fog,Patches of Fog,0,2013-02-22 11:53:00
7:27 AM,60.8,60.8,100,30.09,1.0,Calm,Calm,-,N/A,Fog,Patches of Fog,0,2013-02-22 12:27:00
7:37 AM,62.6,62.6,100,30.09,1.5,Calm,Calm,-,N/A,Fog,Patches of Fog,0,2013-02-22 12:37:00
7:43 AM,62.6,62.6,100,30.10,4.0,Calm,Calm,-,N/A,,Mostly Cloudy,0,2013-02-22 12:43:00
7:53 AM,64.9,64.9,100,30.10,7.0,Calm,Calm,-,N/A,Fog,Patches of Fog,0,2013-02-22 12:53:00
8:53 AM,71.1,68.0,90,30.11,10.0,South,8.1,-,N/A,,Mostly Cloudy,170,2013-02-22 13:53:00
9:53 AM,75.9,66.9,74,30.10,10.0,SSE,12.7,19.6,N/A,,Scattered Clouds,160,2013-02-22 14:53:00
10:53 AM,80.1,66.9,64,30.10,10.0,South,12.7,20.7,N/A,,Scattered Clouds,170,2013-02-22 15:53:00
11:53 AM,81.0,66.0,60,30.08,10.0,SE,13.8,21.9,N/A,,Mostly Cloudy,140,2013-02-22 16:53:00
12:53 PM,82.0,64.9,56,30.06,10.0,South,12.7,-,N/A,,Mostly Cloudy,180,2013-02-22 17:53:00
1:53 PM,84.9,63.0,48,30.04,10.0,SSE,11.5,-,N/A,,Mostly Cloudy,160,2013-02-22 18:53:00
2:53 PM,86.0,62.1,44,30.02,10.0,SE,11.5,-,N/A,,Mostly Cloudy,130,2013-02-22 19:53:00
3:53 PM,86.0,60.1,41,30.01,10.0,South,8.1,17.3,N/A,,Mostly Cloudy,190,2013-02-22 20:53:00
4:53 PM,84.9,62.1,46,30.00,10.0,ESE,10.4,-,N/A,,Mostly Cloudy,120,2013-02-22 21:53:00
5:53 PM,79.0,69.1,72,30.01,10.0,East,12.7,-,N/A,,Mostly Cloudy,100,2013-02-22 22:53:00
6:53 PM,75.0,70.0,84,30.03,10.0,ESE,11.5,-,N/A,,Mostly Cloudy,110,2013-02-22 23:53:00
7:53 PM,73.0,69.1,87,30.05,10.0,ESE,11.5,-,N/A,,Scattered Clouds,110,2013-02-23 00:53:00
8:53 PM,71.1,69.1,93,30.05,10.0,ESE,9.2,-,N/A,,Scattered Clouds,120,2013-02-23 01:53:00
9:53 PM,72.0,70.0,93,30.06,10.0,SE,6.9,-,N/A,,Mostly Cloudy,130,2013-02-23 02:53:00
10:53 PM,71.1,69.1,93,30.05,10.0,SSE,8.1,-,N/A,,Scattered Clouds,150,2013-02-23 03:53:00
11:53 PM,70.0,68.0,93,30.04,10.0,South,9.2,-,N/A,,Scattered Clouds,170,2013-02-23 04:53:00